[Date Prev][Date Next][Thread Prev][Thread Next] - [Date Index][Thread Index][Author Index]

2 line ISS keps 5-15



ISS
1 25544U 98067A   01135.46037697  .00034802  00000-0  42747-3 0  9716
2 25544  51.5703 253.7443 0017387  49.7634  67.0411 15.59772229141969

----
Via the sarex mailing list at AMSAT.ORG courtesy of AMSAT-NA.
To unsubscribe, send "unsubscribe sarex" to Majordomo@amsat.org



AMSAT Top AMSAT Home